Home > Time Zones > World Clock > Weather > China > Sian > Past weeks

Flag for China Weather past 2 weeks in Sian, Shaanxi, China

Now
70 °F

Fog.


Feels Like: 70 °F
Forecast: 62 / 88 °F
Wind: 1 mph from Northeast

Location: Xian/Xianyang

Current Time: Jul 4, 2015 at 6:40:36 AM

Latest Report: Jul 4, 2015 at 5:00 AM


Visibility: 3 mi

Pressure: 29.80 "Hg

Humidity: 83%

Dew point: 64 °F

Location of SianLocation

Historic Weather in Sian — Graph

°F

Sian temperature yesterday

Maximum temperature yesterday: 82 °F (at 11:00 AM)
Minimum temperature yesterday: 72 °F (at 11:00 PM)
Average temperature yesterday: 77 °F

Past Weeks' High & Low Weather Summary

 TemperatureHumidityPressure
High97 °F (Jun 19, 5:00 PM)100% (Jun 23, 1:00 PM)29.86 "Hg (Jun 23, 1:00 PM)
Low59 °F (Jun 21, 6:00 AM)28% (Jun 19, 4:00 PM)29.50 "Hg (Jun 26, 4:00 AM)
Average75 °F76%29.68 "Hg
* Reported Jun 19 5:00 AM — Jul 4 5:00 AM, Sian, Weather by CustomWeather, © 2015

Note: Actual official high and low records may vary slightly from our data, if they occured in-between our weather recording intervals... More about our weather records

Advertising

Sian weather history for previous 24 hours

 ConditionsComfort  
Time TempWeatherWind HumidityBarometerVisibility
5:00 AM
Sat, Jul 4
70 °FFog.1 mph83%29.80 "Hg3 mi
4:00 AM72 °FFog.3 mph78%29.80 "Hg3 mi
3:00 AM72 °FFog.3 mph83%29.80 "Hg3 mi
2:00 AM70 °FFog.3 mph94%29.80 "Hg3 mi
1:00 AM72 °FPassing clouds.3 mph83%29.80 "Hg4 mi
12:00 AM72 °FPassing clouds.3 mph88%29.83 "Hg4 mi
11:00 PM
Fri, Jul 3
72 °FPassing clouds.1 mph88%29.83 "Hg4 mi
10:00 PM75 °FPassing clouds.No wind74%29.80 "Hg4 mi
9:00 PM77 °FPassing clouds.3 mph69%29.77 "Hg4 mi
8:00 PM79 °FPassing clouds.3 mph65%29.77 "Hg4 mi
7:00 PM79 °FPassing clouds.1 mph70%29.77 "Hg5 mi
6:00 PM81 °FPassing clouds.3 mph66%29.74 "Hg5 mi
5:00 PM81 °FScattered clouds.3 mph66%29.77 "Hg4 mi
4:00 PM79 °FScattered clouds.6 mph65%29.77 "Hg4 mi
3:00 PM81 °FPassing clouds.6 mph66%29.77 "Hg4 mi
2:00 PM82 °FPassing clouds.3 mph55%29.77 "HgN/A
1:00 PM82 °FPassing clouds.8 mph55%29.77 "HgN/A
12:00 PM82 °FPassing clouds.8 mph58%29.77 "HgN/A
11:00 AM82 °FSunny.10 mph62%29.77 "Hg10 mi
10:00 AM79 °FSunny.10 mph65%29.77 "Hg10 mi
9:00 AM79 °FPassing clouds.8 mph65%29.77 "HgN/A
8:00 AM75 °FPassing clouds.10 mph74%29.74 "HgN/A
7:00 AM73 °FSunny.6 mph78%29.74 "Hg10 mi
6:00 AM73 °FClear.1 mph78%29.71 "Hg10 mi
Weather by CustomWeather, © 2015

See weather overviewHow to use our weather pages